Вернуться в каталог

CZ-6A DEB

АктивенPO
NORAD 55232·DEBRIS·🇨🇳 China

Запущен Nov 11, 2022 с Taiyuan Satellite Launch Center

Loading…

Ближайшие Пролёты (ближайшие 24 часа)

TLE

СвежийSource: Space-Track

Эпоха: Sep 14, 2026, 04:15 UTC

1 55232U 22151WZ  26257.17729764  .00006526  00000-0  92867-3 0  9997
2 55232  98.6209 338.0606 0072775 324.7875  34.8535 14.75408348198485

Отслеживайте CZ-6A DEB в реальном времени с AllMySat

Download on the App Store